IRIDIUM 137

Last updated on Fri Sep 11 2026 00:03:06 GMT+0000 (Coordinated Universal Time)

1 43076U 17083G 26253.53554498 .00000018 00000+0 -60041-6 0 9996 2 43076 86.3927 286.4853 0001782 94.8980 265.2420 14.34217650456402
UTC large
Height (km)
Speed (km/s)
/
Latitude / Longitude
Inclination (degrees)
Orbital Period (minutes)
Azimuth
Elevation
Range (km)
Doppler Factor

Next 0 passes for location: London (51.5072 / 0.1276)

No passes found over London.
IRIDIUM 137